Location: Hamburg
(53.5554°N, 9.9941°E)
Time: 03:21:15
(UTC+02:00)

ISS - Pass Details

Date: 13 May 2021
Orbit: 417 x 422 km, 51.6° (Epoch: 15 June)

Event Time Altitude Azimuth Distance (km) Brightness Sun altitude
Exits shadow 02:04:03 44° 236° (SW) 599 -3.3 -17.3°
Maximum altitude 02:04:54 63° 176° (S) 477 -3.8 -17.3°
Drops below altitude 10° 02:08:15 10° 95° (E) 1,510 -0.9 -17.2°
Sets 02:10:22 0° 92° (E) 2,376 0.2 -17.1°
